This demonstration page uses our WeatherBlox Daily Observations layout. Learn more.

Left ArrowRight Arrow

Hourly Observations for August 13, 2017

Temp ( °F °C ) Dew Point ( °F °C ) Humidity (%) Winds ( mph kmh ) Pressure ( in mb ) Visibility ( mi km ) Precip ( " mm )
12:52 am 00:52 Cloudy 70 21.1 61 16.1 73 73 ENE 5 7 30.02 1017 10 16 0.00 0.00
1:52 am 01:52 Cloudy 68 20 61 16.1 78 78 ESE 5 7 30.00 1016 10 16 0.00 0.00
2:52 am 02:52 Cloudy 68 20 62 16.7 81 81 SSE 5 7 29.99 1016 10 16 0.00 0.00
3:52 am 03:52 Cloudy 68 20 62 16.7 81 81 SSE 5 7 29.98 1015 10 16 0.00 0.00
4:52 am 04:52 Cloudy 67 19.4 63 17.2 87 87 SSE 7 11 29.98 1015 10 16 0.00 0.00
4:59 am 04:59 Cloudy 67 19.4 63 17.2 87 87 SSE 9 15 29.97 1015 10 16 0.00 0.00
5:34 am 05:34 Cloudy 67 19.4 63 17.2 87 87 SSE 10 17 29.97 1015 10 16 0.00 0.00
5:52 am 05:52 Cloudy 66 18.9 64 17.8 93 93 SE 9 15 29.98 1015 10 16 0.00 0.00
6:10 am 06:10 Cloudy with Light Rain 66 18.9 64 17.8 93 93 S 7 11 29.97 1015 6 10 0.00 0.03
6:52 am 06:52 Cloudy with Light Rain 65 18.3 64 17.8 97 97 SSE 8 13 29.99 1016 8 13 0.03 0.76
7:52 am 07:52 Cloudy with Light Rain 65 18.3 64 17.8 97 97 SSE 7 11 29.99 1016 3 5 0.00 0.03
8:52 am 08:52 Cloudy with Light Rain 66 18.9 64 17.8 93 93 SE 5 7 30.01 1016 7 11 0.02 0.51
9:52 am 09:52 Cloudy 67 19.4 63 17.2 87 87 SE 8 13 29.99 1016 10 16 0.02 0.51
10:52 am 10:52 Cloudy 70 21.1 64 17.8 82 82 S 12 19 29.99 1016 10 16 0.00 0.00
11:52 am 11:52 Cloudy with Light Rain 66 18.9 65 18.3 96 96 SE 10 17 29.99 1016 3 5 0.01 0.25
12:16 pm 12:16 Cloudy with Light Rain 67 19.4 66 18.9 97 97 SE 8 13 29.97 1015 4 6 0.00 0.03
12:45 pm 12:45 Cloudy 68 20 66 18.9 93 93 SE 13 20 29.97 1015 10 16 0.00 0.03
12:52 pm 12:52 Cloudy 69 20.6 67 19.4 93 93 SE 14 22 29.98 1015 10 16 0.00 0.03
1:23 pm 13:23 Cloudy with Light Rain 68 20 66 18.9 93 93 SE 10 17 29.97 1015 6 10 0.00 0.03
1:36 pm 13:36 Cloudy with Rain 68 20 67 19.4 96 96 SE 10 17 29.97 1015 2 3 0.05 1.27
1:45 pm 13:45 Cloudy with Light Rain 68 20 66 18.9 93 93 SE 12 19 29.97 1015 4 6 0.05 1.27
1:52 pm 13:52 Cloudy with Light Rain 69 20.6 67 19.4 93 93 SE 9 15 29.96 1015 8 13 0.05 1.27
2:23 pm 14:23 Cloudy 70 21.1 68 20 93 93 SE 7 11 29.94 1014 10 16 0.00 0.03
2:39 pm 14:39 Cloudy 71 21.7 67 19.4 87 87 SE 10 17 29.94 1014 10 16 0.00 0.03
2:52 pm 14:52 Cloudy with Light Rain 71 21.7 66 18.9 84 84 SE 10 17 29.95 1014 9 14 0.00 0.03
3:00 pm 15:00 Cloudy 71 21.7 66 18.9 84 84 SE 9 15 29.94 1014 10 16 0.00 0.03
3:33 pm 15:33 Cloudy with Rain 69 20.6 67 19.4 93 93 ESE 6 9 29.94 1014 2 3 0.02 0.51
3:37 pm 15:37 Cloudy with Light Rain 69 20.6 67 19.4 93 93 ESE 9 15 29.94 1014 3 4 0.03 0.76
3:44 pm 15:44 Cloudy with Light Rain 70 21.1 67 19.4 90 90 SE 9 15 29.94 1014 4 6 0.03 0.76
3:52 pm 15:52 Cloudy with Light Rain 70 21.1 67 19.4 90 90 SE 8 13 29.92 1013 7 11 0.03 0.76
4:01 pm 16:01 Cloudy 70 21.1 67 19.4 90 90 ESE 7 11 29.91 1013 10 16 0.00 0.03
4:52 pm 16:52 Cloudy 71 21.7 67 19.4 87 87 SE 7 11 29.91 1013 10 16 0.00 0.03
5:52 pm 17:52 Cloudy 70 21.1 66 18.9 87 87 ESE 3 6 29.92 1013 10 16 0.00 0.00
6:52 pm 18:52 Cloudy with Light Rain 67 19.4 66 18.9 97 97 S 3 6 29.92 1013 3 4 0.00 0.03
7:23 pm 19:23 Cloudy with Light Rain 67 19.4 66 18.9 97 97 Calm 29.91 1013 2 3 0.01 0.25
7:34 pm 19:34 Cloudy with Light Rain 66 18.9 66 18.9 100 100 ESE 3 6 29.91 1013 2 3 0.01 0.25
7:52 pm 19:52 Cloudy with Light Rain 67 19.4 66 18.9 97 97 Calm 29.91 1013 2 3 0.01 0.25
8:11 pm 20:11 Cloudy with Mist and Fog 67 19.4 66 18.9 97 97 E 5 7 29.91 1013 4 6 0.01 0.25
8:37 pm 20:37 Cloudy with Mist and Fog 67 19.4 67 19.4 100 100 E 3 6 29.91 1013 4 6 0.01 0.25
8:52 pm 20:52 Cloudy with Mist and Fog 67 19.4 67 19.4 100 100 E 7 11 29.90 1013 4 6 0.01 0.25
9:05 pm 21:05 Cloudy with Mist and Fog 67 19.4 67 19.4 100 100 E 8 13 29.91 1013 4 6 0.00 0.00
9:16 pm 21:16 Cloudy with Mist and Fog 66 18.9 66 18.9 100 100 ESE 8 13 29.91 1013 4 6 0.00 0.00
9:52 pm 21:52 Cloudy 67 19.4 67 19.4 100 100 ESE 8 13 29.90 1012 7 11 0.00 0.00
10:01 pm 22:01 Cloudy 67 19.4 66 18.9 97 97 ESE 8 13 29.91 1013 8 13 0.00 0.00
10:26 pm 22:26 Cloudy 67 19.4 67 19.4 100 100 ESE 6 9 29.91 1013 9 14 0.00 0.00
10:52 pm 22:52 Cloudy 67 19.4 67 19.4 100 100 SE 6 9 29.90 1013 10 16 0.00 0.00
11:17 pm 23:17 Cloudy 67 19.4 67 19.4 100 100 ESE 5 7 29.88 1012 9 14 0.00 0.00
11:52 pm 23:52 Cloudy with Mist and Fog 68 20 68 20 100 100 SE 7 11 29.89 1012 5 8 0.00 0.00

Powered by AerisWeather